Regional Weather Roundup
Issued by NWS

Home | Current Version | Previous Version | Text Only | Print | Product List | Glossary Off
Versions: 1 2 3 4 5 6 7 8 9 10 11 12 13 14 15 16 17 18 19 20 21 22 23 24 25 26 27 28 29 30 31 32 33 34 35 36 37 38 39 40 41 42 43 44 45 46 47 48 49 50

000
ASUS43 KDTX 281201
RWRMI
MICHIGAN HOURLY REGIONAL WEATHER ROUNDUP
NATIONAL WEATHER SERVICE DETROIT/PONTIAC MI
800 AM EDT FRI APR 28 2017

NOTE: "FAIR" INDICATES FEW OR NO CLOUDS BELOW 12,000 FEET WITH NO
SIGNIFICANT WEATHER AND/OR OBSTRUCTION TO VISIBILITY.

MIZ047>049-052>055-059>063-066>070-074>076-081>083-281300-
SOUTHEAST LOWER MICHIGAN

CITY           SKY/WX    TMP DP  RH WIND       PRES   REMARKS
ADRIAN         PTSUNNY   45  40  82 S3        29.95R
6HR MIN TEMP:  42; 6HR MAX TEMP:  49;

ALMA           CLOUDY    45  37  73 SW7G21    29.91R
ANN ARBOR      PTSUNNY   46  40  79 S6        29.95R
BAD AXE        MOSUNNY   45  34  66 SW9       29.90S
6HR MIN TEMP:  44; 6HR MAX TEMP:  46;

CARO           PTSUNNY   46  36  69 SW9       29.90S
DETROIT CITY   CLOUDY    50  39  66 SW7       29.95S
6HR MIN TEMP:  47; 6HR MAX TEMP:  51;

DETROIT        CLOUDY    48  40  73 S8        29.97R
6HR MIN TEMP:  44; 6HR MAX TEMP:  52;

FLINT          PTSUNNY   46  37  71 SW8       29.93R
6HR MIN TEMP:  45; 6HR MAX TEMP:  49;

GROSSE ILE     MOSUNNY   49  40  71 SW7       29.95S
6HR MIN TEMP:  45; 6HR MAX TEMP:  51;

HILLSDALE      SUNNY     43  37  81 S6        29.94R
HOWELL         CLOUDY    45  37  73 S7        29.94R
6HR MIN TEMP:  43; 6HR MAX TEMP:  49;


CITY           SKY/WX    TMP DP  RH WIND       PRES   REMARKS
JACKSON        PTSUNNY   45  39  79 S7        29.93R
6HR MIN TEMP:  40; 6HR MAX TEMP:  49;

LAMBERTVILLE   MOSUNNY   47  40  76 S3        29.95S
6HR MIN TEMP:  42; 6HR MAX TEMP:  51;

LANSING        CLOUDY    46  35  65 SW10      29.93R
6HR MIN TEMP:  45; 6HR MAX TEMP:  48;

LAPEER         FAIR      47  36  64 W9        29.93R
6HR MIN TEMP:  46; 6HR MAX TEMP:  49;

MASON          CLOUDY    44  38  80 CALM      29.94R
MONROE         PTSUNNY   48  40  74 SE7       29.95S
6HR MIN TEMP:  41; 6HR MAX TEMP:  51;

PONTIAC        CLOUDY    47  37  68 SW6       29.93R
6HR MIN TEMP:  45; 6HR MAX TEMP:  49;

PORT HOPE        N/A     46  35  65 VRB6      29.88R
6HR MIN TEMP:  46; 6HR MAX TEMP:  48;

PORT HURON     MOSUNNY   48  34  57 CALM      29.95R
TRI CITIES     CLOUDY    46  37  71 SW12      29.90R
6HR MIN TEMP:  45; 6HR MAX TEMP:  46;

MIDLAND        PTSUNNY   46  34  61 SW12G21   29.89R
6HR MIN TEMP:  44; 6HR MAX TEMP:  46;

TROY           CLOUDY    49  35  59 S5        29.96R
SAGINAW HB     CLOUDY    46  34  61 SW13      29.90R
$$
MIZ043>046-050>051-056>058-064>065-071>073-077>080-281300-
SOUTHWEST LOWER MICHIGAN

CITY           SKY/WX    TMP DP  RH WIND       PRES   REMARKS
BATTLE CREEK   CLOUDY    44  39  82 CALM      29.94R
6HR MIN TEMP:  41; 6HR MAX TEMP:  45;

BENTON HARBOR  CLOUDY    44  39  82 SE5       29.95R
6HR MIN TEMP:  37; 6HR MAX TEMP:  45;

BIG RAPIDS     CLOUDY    39  30  70 W12       29.89R WCI  32
6HR MIN TEMP:  38; 6HR MAX TEMP:  41;

COLDWATER      SUNNY     45  41  84 S5        29.95R
6HR MIN TEMP:  39; 6HR MAX TEMP:  48;

FREMONT        FAIR      38  32  77 SW3       29.90R
HOLLAND        CLOUDY    45  37  73 W6        29.92R
6HR MIN TEMP:  44; 6HR MAX TEMP:  45;

GRAND RAPIDS   CLOUDY    45  38  76 SW8       29.91R
6HR MIN TEMP:  44; 6HR MAX TEMP:  45;

IONIA          CLOUDY    45  36  69 SW8       29.91R
6HR MIN TEMP:  44; 6HR MAX TEMP:  45;

KALAMAZOO      CLOUDY    44  38  79 S3        29.94R
6HR MIN TEMP:  40; 6HR MAX TEMP:  46;

LUDINGTON      CLOUDY    39  34  81 W7        29.88R WCI  34
6HR MIN TEMP:  39; 6HR MAX TEMP:  41;

MARSHALL       CLOUDY    43  40  89 S3        29.93R
6HR MIN TEMP:  39; 6HR MAX TEMP:  47;

MOUNT PLEASANT MOSUNNY   43  34  69 SW9G21    29.89R
6HR MIN TEMP:  42; 6HR MAX TEMP:  44;

MUSKEGON       PTSUNNY   42  33  70 W7        29.91R
6HR MIN TEMP:  40; 6HR MAX TEMP:  44;

SOUTH HAVEN    CLOUDY    44  38  79 S3        29.94R
$$
MIZ016>042-281300-
NORTHERN LOWER MICHIGAN

CITY           SKY/WX    TMP DP  RH WIND       PRES   REMARKS
ALPENA         CLOUDY    43  36  76 SW10      29.84R
6HR MIN TEMP:  43; 6HR MAX TEMP:  45; 6HR PCP: TRACE;

BEAVER ISLAND  CLOUDY    34  33  96 W9        29.82R FOG     WCI  27
6HR MIN TEMP:  34; 6HR MAX TEMP:  38;

BELLAIRE       CLOUDY    38  35  87 SW7       29.85R WCI  33
6HR MIN TEMP:  37; 6HR MAX TEMP:  42;

CADILLAC       CLOUDY    38  32  81 SW12      29.84R WCI  30
CHARLEVOIX     CLOUDY    37  37 100 W10G16    29.87R FOG     WCI  29
FRANKFORT      CLOUDY    38  32  78 W12       29.86R WCI  31
GAYLORD        LGT RAIN  37  32  82 SW12      29.82R WCI  29
6HR MIN TEMP:  37; 6HR MAX TEMP:  41; 6HR PCP:  0.05;

GRAYLING       CLOUDY    37  35  91 SW8       29.84R WCI  31
6HR MIN TEMP:  37; 6HR MAX TEMP:  40;

HARBOR SPRINGS LGT RAIN  35  35 100 W8G16     29.82R WCI  28
HOUGHTON LAKE  CLOUDY    41  33  73 SW14G21   29.85R
6HR MIN TEMP:  40; 6HR MAX TEMP:  41; 6HR PCP: TRACE;

MANISTEE       CLOUDY    39  33  79 W15       29.87R WCI  31
OSCODA         CLOUDY    45  33  63 SW10G16   29.86R
6HR MIN TEMP:  44; 6HR MAX TEMP:  45;

PELLSTON       CLOUDY    36  33  89 W5        29.83R FOG     WCI  32
6HR MIN TEMP:  35; 6HR MAX TEMP:  40; 6HR PCP:  0.02;

ROGERS CITY    LGT SNOW  38  36  92 W6        29.84R WCI  33
TRAVERSE CITY  LGT RAIN  38  33  82 W9        29.85R WCI  31
6HR MIN TEMP:  38; 6HR MAX TEMP:  43; 6HR PCP:  0.02;

$$
MIZ007>008-015-281300-
EASTERN UPPER MICHIGAN

CITY           SKY/WX    TMP DP  RH WIND       PRES   REMARKS
KINROSS        CLOUDY    34  31  88 SW6       29.80R WCI  29
6HR MIN TEMP:  33; 6HR MAX TEMP:  37; 6HR PCP: TRACE;

MACKINAC ISLAN CLOUDY    35  33  92 W10G22    29.81R FOG     WCI  27
6HR MIN TEMP:  35; 6HR MAX TEMP:  38;

NEWBERRY       CLOUDY    31  28  88 W8        29.78R WCI  24
6HR MIN TEMP:  31; 6HR MAX TEMP:  34;

S. S. MARIE    CLOUDY    36  30  79 SW12      29.78R WCI  28
6HR MIN TEMP:  35; 6HR MAX TEMP:  37; 6HR PCP:  0.01;

MUNISING         N/A     32  28  85 S7        29.77R WCI  26
6HR MIN TEMP:  31; 6HR MAX TEMP:  33; 6HR PCP:  0.01;

$$
MIZ004>006-011>014-085-281300-
CENTRAL UPPER MICHIGAN

CITY           SKY/WX    TMP DP  RH WIND       PRES   REMARKS
MANISTIQUE     CLOUDY    32  30  92 W6        29.80R WCI  26
6HR MIN TEMP:  31; 6HR MAX TEMP:  33;

ESCANABA       CLOUDY    32  28  85 SW8       29.82R WCI  25
6HR MIN TEMP:  31; 6HR MAX TEMP:  33; 6HR PCP: TRACE;

MENOMINEE      CLOUDY    34  24  67 VRB6      29.85R WCI  29
6HR MIN TEMP:  34; 6HR MAX TEMP:  36; 6HR PCP: TRACE;

SAWYER-GWINN   PTSUNNY   28  25  86 SW10G17   29.75R WCI  19
$$
MIZ001>003-009>011-084-281300-
WESTERN UPPER MICHIGAN

CITY           SKY/WX    TMP DP  RH WIND       PRES   REMARKS
IRON MOUNTAIN  CLOUDY    31  24  75 SW7       29.76R WCI  24
6HR MIN TEMP:  30; 6HR MAX TEMP:  31; 6HR PCP: TRACE;

HOUGHTON       CLOUDY    30  24  78 W13       29.68R WCI  20
6HR MIN TEMP:  29; 6HR MAX TEMP:  30; 6HR PCP:  0.01;

COPPER HARBOR    N/A     31  28  89 W5        29.69R WCI  26
6HR MIN TEMP:  30; 6HR MAX TEMP:  31; 6HR PCP:  0.01;

IRONWOOD       CLOUDY    28  25  88 W13       29.76R WCI  17
$$

ABBREVIATIONS USED IN REMARKS
   TC - TEMPERATURE IN CELSIUS
  WCI - WIND CHILL INDEX
   HX - HEAT INDEX
  VSB - VISIBILITY





USA.gov is the U.S. government's official web portal to all federal, state and local government web resources and services.